Year,Month,Day,Hour,Minute,Value (Times are PST for temperature in C)
2016,06,20,00,00,10.30
2016,06,20,00,01,10.40
2016,06,20,00,02,10.40
2016,06,20,00,03,10.40
2016,06,20,00,04,10.50
2016,06,20,00,05,10.50
2016,06,20,00,06,10.50
2016,06,20,00,07,10.60
2016,06,20,00,08,10.60
2016,06,20,00,09,10.60
2016,06,20,00,10,10.60
2016,06,20,00,11,10.60
2016,06,20,00,12,10.60
2016,06,20,00,13,10.60
2016,06,20,00,14,10.60
2016,06,20,00,15,10.50
2016,06,20,00,16,10.50
2016,06,20,00,17,10.50
2016,06,20,00,18,10.40
2016,06,20,00,19,10.40
2016,06,20,00,20,10.40
2016,06,20,00,21,10.40
2016,06,20,00,22,10.30
2016,06,20,00,23,10.30
2016,06,20,00,24,10.30
2016,06,20,00,25,10.30
2016,06,20,00,26,10.30
2016,06,20,00,27,10.30
2016,06,20,00,28,10.30
2016,06,20,00,29,10.30
2016,06,20,00,30,10.20
2016,06,20,00,31,10.20
2016,06,20,00,32,10.20
2016,06,20,00,33,10.20
2016,06,20,00,34,10.20
2016,06,20,00,35,10.20
2016,06,20,00,36,10.20
2016,06,20,00,37,10.10
2016,06,20,00,38,10.10
2016,06,20,00,39,10.20
2016,06,20,00,40,10.20
2016,06,20,00,41,10.20
2016,06,20,00,42,10.20
2016,06,20,00,43,10.20
2016,06,20,00,44,10.20
2016,06,20,00,45,10.30
2016,06,20,00,46,10.30
2016,06,20,00,47,10.40
2016,06,20,00,48,10.40
2016,06,20,00,49,10.50
2016,06,20,00,50,10.50
2016,06,20,00,51,10.60
2016,06,20,00,52,10.70
2016,06,20,00,53,10.70
2016,06,20,00,54,10.80
2016,06,20,00,55,10.80
2016,06,20,00,56,10.90
2016,06,20,00,57,10.90
2016,06,20,00,58,10.90
2016,06,20,00,59,10.90
2016,06,20,01,00,10.90
2016,06,20,01,01,10.90
2016,06,20,01,02,10.90
2016,06,20,01,03,10.90
2016,06,20,01,04,10.90
2016,06,20,01,05,10.90
2016,06,20,01,06,10.80
2016,06,20,01,07,10.80
2016,06,20,01,08,10.90
2016,06,20,01,09,10.90
2016,06,20,01,10,10.90
2016,06,20,01,11,10.90
2016,06,20,01,12,10.90
2016,06,20,01,13,10.90
2016,06,20,01,14,11.00
2016,06,20,01,15,11.00
2016,06,20,01,16,11.00
2016,06,20,01,17,11.00
2016,06,20,01,18,11.00
2016,06,20,01,19,11.10
2016,06,20,01,20,11.10
2016,06,20,01,21,11.10
2016,06,20,01,22,11.00
2016,06,20,01,23,11.00
2016,06,20,01,24,11.00
2016,06,20,01,25,11.00
2016,06,20,01,26,11.00
2016,06,20,01,27,11.00
2016,06,20,01,28,11.00
2016,06,20,01,29,11.00
2016,06,20,01,30,11.00
2016,06,20,01,31,11.10
2016,06,20,01,32,11.00
2016,06,20,01,33,11.00
2016,06,20,01,34,11.00
2016,06,20,01,35,11.00
2016,06,20,01,36,11.00
2016,06,20,01,37,11.00
2016,06,20,01,38,11.10
2016,06,20,01,39,11.10
2016,06,20,01,40,11.10
2016,06,20,01,41,11.20
2016,06,20,01,42,11.20
2016,06,20,01,43,11.20
2016,06,20,01,44,11.20
2016,06,20,01,45,11.20
2016,06,20,01,46,11.20
2016,06,20,01,47,11.20
2016,06,20,01,48,11.20
2016,06,20,01,49,11.10
2016,06,20,01,50,11.10
2016,06,20,01,51,11.20
2016,06,20,01,52,11.10
2016,06,20,01,53,11.10
2016,06,20,01,54,11.10
2016,06,20,01,55,11.10
2016,06,20,01,56,11.10
2016,06,20,01,57,11.10
2016,06,20,01,58,11.10
2016,06,20,01,59,11.10
2016,06,20,02,00,11.10
2016,06,20,02,01,11.10
2016,06,20,02,02,11.10
2016,06,20,02,03,11.00
2016,06,20,02,04,11.00
2016,06,20,02,05,11.00
2016,06,20,02,06,11.00
2016,06,20,02,07,10.90
2016,06,20,02,08,10.90
2016,06,20,02,09,10.90
2016,06,20,02,10,10.80
2016,06,20,02,11,10.80
2016,06,20,02,12,10.80
2016,06,20,02,13,10.80
2016,06,20,02,14,10.70
2016,06,20,02,15,10.70
2016,06,20,02,16,10.70
2016,06,20,02,17,10.70
2016,06,20,02,18,10.70
2016,06,20,02,19,10.70
2016,06,20,02,20,10.80
2016,06,20,02,21,10.80
2016,06,20,02,22,10.80
2016,06,20,02,23,10.90
2016,06,20,02,24,10.80
2016,06,20,02,25,10.80
2016,06,20,02,26,10.80
2016,06,20,02,27,10.80
2016,06,20,02,28,10.80
2016,06,20,02,29,10.90
2016,06,20,02,30,10.90
2016,06,20,02,31,10.90
2016,06,20,02,32,10.90
2016,06,20,02,33,10.90
2016,06,20,02,34,10.90
2016,06,20,02,35,10.90
2016,06,20,02,36,10.80
2016,06,20,02,37,10.80
2016,06,20,02,38,10.80
2016,06,20,02,39,10.80
2016,06,20,02,40,10.80
2016,06,20,02,41,10.80
2016,06,20,02,42,10.70
2016,06,20,02,43,10.70
2016,06,20,02,44,10.70
2016,06,20,02,45,10.70
2016,06,20,02,46,10.70
2016,06,20,02,47,10.70
2016,06,20,02,48,10.80
2016,06,20,02,49,10.80
2016,06,20,02,50,10.80
2016,06,20,02,51,10.80
2016,06,20,02,52,10.80
2016,06,20,02,53,10.80
2016,06,20,02,54,10.70
2016,06,20,02,55,10.70
2016,06,20,02,56,10.70
2016,06,20,02,57,10.70
2016,06,20,02,58,10.70
2016,06,20,02,59,10.70
2016,06,20,03,00,10.70
2016,06,20,03,01,10.60
2016,06,20,03,02,10.60
2016,06,20,03,03,10.60
2016,06,20,03,04,10.60
2016,06,20,03,05,10.60
2016,06,20,03,06,10.60
2016,06,20,03,07,10.70
2016,06,20,03,08,10.70
2016,06,20,03,09,10.70
2016,06,20,03,10,10.70
2016,06,20,03,11,10.70
2016,06,20,03,12,10.70
2016,06,20,03,13,10.70
2016,06,20,03,14,10.70
2016,06,20,03,15,10.70
2016,06,20,03,16,10.80
2016,06,20,03,17,10.80
2016,06,20,03,18,10.90
2016,06,20,03,19,11.00
2016,06,20,03,20,11.10
2016,06,20,03,21,11.10
2016,06,20,03,22,11.10
2016,06,20,03,23,11.10
2016,06,20,03,24,11.10
2016,06,20,03,25,11.10
2016,06,20,03,26,11.10
2016,06,20,03,27,11.10
2016,06,20,03,28,11.10
2016,06,20,03,29,11.10
2016,06,20,03,30,11.10
2016,06,20,03,31,11.10
2016,06,20,03,32,11.10
2016,06,20,03,33,11.10
2016,06,20,03,34,11.10
2016,06,20,03,35,11.10
2016,06,20,03,36,11.10
2016,06,20,03,37,11.10
2016,06,20,03,38,11.00
2016,06,20,03,39,11.00
2016,06,20,03,40,10.90
2016,06,20,03,41,10.90
2016,06,20,03,42,10.90
2016,06,20,03,43,10.90
2016,06,20,03,44,10.80
2016,06,20,03,45,10.90
2016,06,20,03,46,10.90
2016,06,20,03,47,11.00
2016,06,20,03,48,11.00
2016,06,20,03,49,11.10
2016,06,20,03,50,11.10
2016,06,20,03,51,11.10
2016,06,20,03,52,11.20
2016,06,20,03,53,11.20
2016,06,20,03,54,11.20
2016,06,20,03,55,11.30
2016,06,20,03,56,11.30
2016,06,20,03,57,11.30
2016,06,20,03,58,11.30
2016,06,20,03,59,11.40
2016,06,20,04,00,11.40
2016,06,20,04,01,11.50
2016,06,20,04,02,11.50
2016,06,20,04,03,11.60
2016,06,20,04,04,11.60
2016,06,20,04,05,11.70
2016,06,20,04,06,11.70
2016,06,20,04,07,11.80
2016,06,20,04,08,11.80
2016,06,20,04,09,11.90
2016,06,20,04,10,11.90
2016,06,20,04,11,11.90
2016,06,20,04,12,12.00
2016,06,20,04,13,12.00
2016,06,20,04,14,12.00
2016,06,20,04,15,12.10
2016,06,20,04,16,12.10
2016,06,20,04,17,12.10
2016,06,20,04,18,12.10
2016,06,20,04,19,12.10
2016,06,20,04,20,12.10
2016,06,20,04,21,12.10
2016,06,20,04,22,12.20
2016,06,20,04,23,12.20
2016,06,20,04,24,12.20
2016,06,20,04,25,12.20
2016,06,20,04,26,12.20
2016,06,20,04,27,12.20
2016,06,20,04,28,12.20
2016,06,20,04,29,12.20
2016,06,20,04,30,12.20
2016,06,20,04,31,12.20
2016,06,20,04,32,12.20
2016,06,20,04,33,12.20
2016,06,20,04,34,12.20
2016,06,20,04,35,12.20
2016,06,20,04,36,12.20
2016,06,20,04,37,12.20
2016,06,20,04,38,12.20
2016,06,20,04,39,12.30
2016,06,20,04,40,12.30
2016,06,20,04,41,12.30
2016,06,20,04,42,12.30
2016,06,20,04,43,12.30
2016,06,20,04,44,12.40
2016,06,20,04,45,12.40
2016,06,20,04,46,12.40
2016,06,20,04,47,12.40
2016,06,20,04,48,12.40
2016,06,20,04,49,12.40
2016,06,20,04,50,12.40
2016,06,20,04,51,12.40
2016,06,20,04,52,12.40
2016,06,20,04,53,12.40
2016,06,20,04,54,12.40
2016,06,20,04,55,12.40
2016,06,20,04,56,12.40
2016,06,20,04,57,12.40
2016,06,20,04,58,12.40
2016,06,20,04,59,12.40
2016,06,20,05,00,12.40
2016,06,20,05,01,12.40
2016,06,20,05,02,12.40
2016,06,20,05,03,12.40
2016,06,20,05,04,12.40
2016,06,20,05,05,12.40
2016,06,20,05,06,12.30
2016,06,20,05,07,12.30
2016,06,20,05,08,12.30
2016,06,20,05,09,12.40
2016,06,20,05,10,12.40
2016,06,20,05,11,12.40
2016,06,20,05,12,12.40
2016,06,20,05,13,12.40
2016,06,20,05,14,12.40
2016,06,20,05,15,12.50
2016,06,20,05,16,12.50
2016,06,20,05,17,12.50
2016,06,20,05,18,12.50
2016,06,20,05,19,12.50
2016,06,20,05,20,12.50
2016,06,20,05,21,12.50
2016,06,20,05,22,12.50
2016,06,20,05,23,12.50
2016,06,20,05,24,12.60
2016,06,20,05,25,12.50
2016,06,20,05,26,12.50
2016,06,20,05,27,12.50
2016,06,20,05,28,12.40
2016,06,20,05,29,12.40
2016,06,20,05,30,12.40
2016,06,20,05,31,12.40
2016,06,20,05,32,12.40
2016,06,20,05,33,12.40
2016,06,20,05,34,12.40
2016,06,20,05,35,12.40
2016,06,20,05,36,12.40
2016,06,20,05,37,12.40
2016,06,20,05,38,12.40
2016,06,20,05,39,12.40
2016,06,20,05,40,12.50
2016,06,20,05,41,12.50
2016,06,20,05,42,12.50
2016,06,20,05,43,12.60
2016,06,20,05,44,12.60
2016,06,20,05,45,12.60
2016,06,20,05,46,12.60
2016,06,20,05,47,12.60
2016,06,20,05,48,12.60
2016,06,20,05,49,12.70
2016,06,20,05,50,12.70
2016,06,20,05,51,12.70
2016,06,20,05,52,12.70
2016,06,20,05,53,12.70
2016,06,20,05,54,12.70
2016,06,20,05,55,12.70
2016,06,20,05,56,12.80
2016,06,20,05,57,12.80
2016,06,20,05,58,12.80
2016,06,20,05,59,12.80
2016,06,20,06,00,12.80
2016,06,20,06,01,12.80
2016,06,20,06,02,12.90
2016,06,20,06,03,12.90
2016,06,20,06,04,12.80
2016,06,20,06,05,12.80
2016,06,20,06,06,12.80
2016,06,20,06,07,12.80
2016,06,20,06,08,12.80
2016,06,20,06,09,12.80
2016,06,20,06,10,12.80
2016,06,20,06,11,12.80
2016,06,20,06,12,12.90
2016,06,20,06,13,12.90
2016,06,20,06,14,12.90
2016,06,20,06,15,12.90
2016,06,20,06,16,13.00
2016,06,20,06,17,13.00
2016,06,20,06,18,13.10
2016,06,20,06,19,13.10
2016,06,20,06,20,13.10
2016,06,20,06,21,13.20
2016,06,20,06,22,13.20
2016,06,20,06,23,13.20
2016,06,20,06,24,13.30
2016,06,20,06,25,13.30
2016,06,20,06,26,13.30
2016,06,20,06,27,13.30
2016,06,20,06,28,13.40
2016,06,20,06,29,13.40
2016,06,20,06,30,13.40
2016,06,20,06,31,13.50
2016,06,20,06,32,13.50
2016,06,20,06,33,13.50
2016,06,20,06,34,13.50
2016,06,20,06,35,13.60
2016,06,20,06,36,13.60
2016,06,20,06,37,13.60
2016,06,20,06,38,13.60
2016,06,20,06,39,13.60
2016,06,20,06,40,13.60
2016,06,20,06,41,13.60
2016,06,20,06,42,13.60
2016,06,20,06,43,13.70
2016,06,20,06,44,13.70
2016,06,20,06,45,13.70
2016,06,20,06,46,13.70
2016,06,20,06,47,13.80
2016,06,20,06,48,13.80
2016,06,20,06,49,13.80
2016,06,20,06,50,13.90
2016,06,20,06,51,13.90
2016,06,20,06,52,13.90
2016,06,20,06,53,14.00
2016,06,20,06,54,14.00
2016,06,20,06,55,14.10
2016,06,20,06,56,14.10
2016,06,20,06,57,14.10
2016,06,20,06,58,14.20
2016,06,20,06,59,14.20
2016,06,20,07,00,14.20
2016,06,20,07,01,14.20
2016,06,20,07,02,14.30
2016,06,20,07,03,14.30
2016,06,20,07,04,14.30
2016,06,20,07,05,14.30
2016,06,20,07,06,14.30
2016,06,20,07,07,14.40
2016,06,20,07,08,14.40
2016,06,20,07,09,14.40
2016,06,20,07,10,14.40
2016,06,20,07,11,14.50
2016,06,20,07,12,14.50
2016,06,20,07,13,14.50
2016,06,20,07,14,14.60
2016,06,20,07,15,14.60
2016,06,20,07,16,14.60
2016,06,20,07,17,14.60
2016,06,20,07,18,14.60
2016,06,20,07,19,14.70
2016,06,20,07,20,14.70
2016,06,20,07,21,14.70
2016,06,20,07,22,14.70
2016,06,20,07,23,14.70
2016,06,20,07,24,14.70
2016,06,20,07,25,14.70
2016,06,20,07,26,14.70
2016,06,20,07,27,14.60
2016,06,20,07,28,14.60
2016,06,20,07,29,14.60
2016,06,20,07,30,14.60
2016,06,20,07,31,14.60
2016,06,20,07,32,14.60
2016,06,20,07,33,14.70
2016,06,20,07,34,14.70
2016,06,20,07,35,14.70
2016,06,20,07,36,14.70
2016,06,20,07,37,14.80
2016,06,20,07,38,14.80
2016,06,20,07,39,14.80
2016,06,20,07,40,14.90
2016,06,20,07,41,14.90
2016,06,20,07,42,14.90
2016,06,20,07,43,15.00
2016,06,20,07,44,15.00
2016,06,20,07,45,15.10
2016,06,20,07,46,15.10
2016,06,20,07,47,15.20
2016,06,20,07,48,15.20
2016,06,20,07,49,15.20
2016,06,20,07,50,15.20
2016,06,20,07,51,15.20
2016,06,20,07,52,15.20
2016,06,20,07,53,15.20
2016,06,20,07,54,15.30
2016,06,20,07,55,15.30
2016,06,20,07,56,15.30
2016,06,20,07,57,15.30
2016,06,20,07,58,15.30
2016,06,20,07,59,15.30
2016,06,20,08,00,15.30
2016,06,20,08,01,15.30
2016,06,20,08,02,15.40
2016,06,20,08,03,15.40
2016,06,20,08,04,15.40
2016,06,20,08,05,15.40
2016,06,20,08,06,15.40
2016,06,20,08,07,15.40
2016,06,20,08,08,15.40
2016,06,20,08,09,15.40
2016,06,20,08,10,15.50
2016,06,20,08,11,15.50
2016,06,20,08,12,15.50
2016,06,20,08,13,15.50
2016,06,20,08,14,15.60
2016,06,20,08,15,15.60
2016,06,20,08,16,15.60
2016,06,20,08,17,15.60
2016,06,20,08,18,15.60
2016,06,20,08,19,15.60
2016,06,20,08,20,15.60
2016,06,20,08,21,15.70
2016,06,20,08,22,15.70
2016,06,20,08,23,15.70
2016,06,20,08,24,15.80
2016,06,20,08,25,15.80
2016,06,20,08,26,15.80
2016,06,20,08,27,15.80
2016,06,20,08,28,15.80
2016,06,20,08,29,15.90
2016,06,20,08,30,15.90
2016,06,20,08,31,16.00
2016,06,20,08,32,16.00
2016,06,20,08,33,16.00
2016,06,20,08,34,16.00
2016,06,20,08,35,16.10
2016,06,20,08,36,16.10
2016,06,20,08,37,16.10
2016,06,20,08,38,16.20
2016,06,20,08,39,16.20
2016,06,20,08,40,16.20
2016,06,20,08,41,16.20
2016,06,20,08,42,16.20
2016,06,20,08,43,16.20
2016,06,20,08,44,16.20
2016,06,20,08,45,16.30
2016,06,20,08,46,16.30
2016,06,20,08,47,16.30
2016,06,20,08,48,16.30
2016,06,20,08,49,16.30
2016,06,20,08,50,16.30
2016,06,20,08,51,16.30
2016,06,20,08,52,16.30
2016,06,20,08,53,16.30
2016,06,20,08,54,16.40
2016,06,20,08,55,16.50
2016,06,20,08,56,16.50
2016,06,20,08,57,16.60
2016,06,20,08,58,16.60
2016,06,20,08,59,16.60
2016,06,20,09,00,16.60
2016,06,20,09,01,16.70
2016,06,20,09,02,16.70
2016,06,20,09,03,16.70
2016,06,20,09,04,16.70
2016,06,20,09,05,16.60
2016,06,20,09,06,16.60
2016,06,20,09,07,16.60
2016,06,20,09,08,16.60
2016,06,20,09,09,16.70
2016,06,20,09,10,16.70
2016,06,20,09,11,16.70
2016,06,20,09,12,16.80
2016,06,20,09,13,16.80
2016,06,20,09,14,16.80
2016,06,20,09,15,16.90
2016,06,20,09,16,16.90
2016,06,20,09,17,16.90
2016,06,20,09,18,16.90
2016,06,20,09,19,16.90
2016,06,20,09,20,16.90
2016,06,20,09,21,17.00
2016,06,20,09,22,17.10
2016,06,20,09,23,17.10
2016,06,20,09,24,17.20
2016,06,20,09,25,17.20
2016,06,20,09,26,17.30
2016,06,20,09,27,17.40
2016,06,20,09,28,17.40
2016,06,20,09,29,17.40
2016,06,20,09,30,17.40
2016,06,20,09,31,17.40
2016,06,20,09,32,17.40
2016,06,20,09,33,17.40
2016,06,20,09,34,17.40
2016,06,20,09,35,17.40
2016,06,20,09,36,17.30
2016,06,20,09,37,17.20
2016,06,20,09,38,17.10
2016,06,20,09,39,17.00
2016,06,20,09,40,16.90
2016,06,20,09,41,16.90
2016,06,20,09,42,16.80
2016,06,20,09,43,16.80
2016,06,20,09,44,16.80
2016,06,20,09,45,16.80
2016,06,20,09,46,16.80
2016,06,20,09,47,16.80
2016,06,20,09,48,16.80
2016,06,20,09,49,16.80
2016,06,20,09,50,16.80
2016,06,20,09,51,16.80
2016,06,20,09,52,16.80
2016,06,20,09,53,16.90
2016,06,20,09,54,17.00
2016,06,20,09,55,17.10
2016,06,20,09,56,17.20
2016,06,20,09,57,17.20
2016,06,20,09,58,17.30
2016,06,20,09,59,17.30
2016,06,20,10,00,17.40
2016,06,20,10,01,17.50
2016,06,20,10,02,17.60
2016,06,20,10,03,17.60
2016,06,20,10,04,17.60
2016,06,20,10,05,17.60
2016,06,20,10,06,17.70
2016,06,20,10,07,17.70
2016,06,20,10,08,17.80
2016,06,20,10,09,17.80
2016,06,20,10,10,17.80
2016,06,20,10,11,17.90
2016,06,20,10,12,18.00
2016,06,20,10,13,18.00
2016,06,20,10,14,17.90
2016,06,20,10,15,17.90
2016,06,20,10,16,17.90
2016,06,20,10,17,17.90
2016,06,20,10,18,18.00
2016,06,20,10,19,18.00
2016,06,20,10,20,17.90
2016,06,20,10,21,17.90
2016,06,20,10,22,17.90
2016,06,20,10,23,17.90
2016,06,20,10,24,17.90
2016,06,20,10,25,17.90
2016,06,20,10,26,17.90
2016,06,20,10,27,17.90
2016,06,20,10,28,17.80
2016,06,20,10,29,17.80
2016,06,20,10,30,17.70
2016,06,20,10,31,17.70
2016,06,20,10,32,17.70
2016,06,20,10,33,17.70
2016,06,20,10,34,17.70
2016,06,20,10,35,17.70
2016,06,20,10,36,17.70
2016,06,20,10,37,17.70
2016,06,20,10,38,17.70
2016,06,20,10,39,17.70
2016,06,20,10,40,17.60
2016,06,20,10,41,17.70
2016,06,20,10,42,17.70
2016,06,20,10,43,17.80
2016,06,20,10,44,17.80
2016,06,20,10,45,17.80
2016,06,20,10,46,17.80
2016,06,20,10,47,17.80
2016,06,20,10,48,17.80
2016,06,20,10,49,17.80
2016,06,20,10,50,17.90
2016,06,20,10,51,17.90
2016,06,20,10,52,18.00
2016,06,20,10,53,18.10
2016,06,20,10,54,18.20
2016,06,20,10,55,18.20
2016,06,20,10,56,18.20
2016,06,20,10,57,18.20
2016,06,20,10,58,18.20
2016,06,20,10,59,18.30
2016,06,20,11,00,18.30
2016,06,20,11,01,18.40
2016,06,20,11,02,18.50
2016,06,20,11,03,18.60
2016,06,20,11,04,18.60
2016,06,20,11,05,18.70
2016,06,20,11,06,18.80
2016,06,20,11,07,18.90
2016,06,20,11,08,18.90
2016,06,20,11,09,18.90
2016,06,20,11,10,19.00
2016,06,20,11,11,19.00
2016,06,20,11,12,19.00
2016,06,20,11,13,19.00
2016,06,20,11,14,19.00
2016,06,20,11,15,19.10
2016,06,20,11,16,19.10
2016,06,20,11,17,19.10
2016,06,20,11,18,19.20
2016,06,20,11,19,19.20
2016,06,20,11,20,19.20
2016,06,20,11,21,19.20
2016,06,20,11,22,19.20
2016,06,20,11,23,19.20
2016,06,20,11,24,19.20
2016,06,20,11,25,19.10
2016,06,20,11,26,19.10
2016,06,20,11,27,19.10
2016,06,20,11,28,19.10
2016,06,20,11,29,19.10
2016,06,20,11,30,19.10
2016,06,20,11,31,19.20
2016,06,20,11,32,19.20
2016,06,20,11,33,19.20
2016,06,20,11,34,19.20
2016,06,20,11,35,19.20
2016,06,20,11,36,19.20
2016,06,20,11,37,19.20
2016,06,20,11,38,19.10
2016,06,20,11,39,19.10
2016,06,20,11,40,19.10
2016,06,20,11,41,19.10
2016,06,20,11,42,19.20
2016,06,20,11,43,19.10
2016,06,20,11,44,19.10
2016,06,20,11,45,19.10
2016,06,20,11,46,19.10
2016,06,20,11,47,19.00
2016,06,20,11,48,19.00
2016,06,20,11,49,19.00
2016,06,20,11,50,19.00
2016,06,20,11,51,18.90
2016,06,20,11,52,18.90
2016,06,20,11,53,18.80
2016,06,20,11,54,18.80
2016,06,20,11,55,18.70
2016,06,20,11,56,18.60
2016,06,20,11,57,18.60
2016,06,20,11,58,18.50
2016,06,20,11,59,18.50
2016,06,20,12,00,18.50
2016,06,20,12,01,18.40
2016,06,20,12,02,18.40
2016,06,20,12,03,18.40
2016,06,20,12,04,18.40
2016,06,20,12,05,18.30
2016,06,20,12,06,18.30
2016,06,20,12,07,18.30
2016,06,20,12,08,18.40
2016,06,20,12,09,18.40
2016,06,20,12,10,18.40
2016,06,20,12,11,18.50
2016,06,20,12,12,18.60
2016,06,20,12,13,18.70
2016,06,20,12,14,18.70
2016,06,20,12,15,18.80
2016,06,20,12,16,18.70
2016,06,20,12,17,18.70
2016,06,20,12,18,18.80
2016,06,20,12,19,18.80
2016,06,20,12,20,18.80
2016,06,20,12,21,18.90
2016,06,20,12,22,18.90
2016,06,20,12,23,18.90
2016,06,20,12,24,18.90
2016,06,20,12,25,18.90
2016,06,20,12,26,19.00
2016,06,20,12,27,19.10
2016,06,20,12,28,19.10
2016,06,20,12,29,19.20
2016,06,20,12,30,19.20
2016,06,20,12,31,19.10
2016,06,20,12,32,19.10
2016,06,20,12,33,19.10
2016,06,20,12,34,19.00
2016,06,20,12,35,19.10
2016,06,20,12,36,19.10
2016,06,20,12,37,19.10
2016,06,20,12,38,19.20
2016,06,20,12,39,19.20
2016,06,20,12,40,19.30
2016,06,20,12,41,19.30
2016,06,20,12,42,19.30
2016,06,20,12,43,19.30
2016,06,20,12,44,19.30
2016,06,20,12,45,19.30
2016,06,20,12,46,19.30
2016,06,20,12,47,19.30
2016,06,20,12,48,19.30
2016,06,20,12,49,19.40
2016,06,20,12,50,19.40
2016,06,20,12,51,19.50
2016,06,20,12,52,19.50
2016,06,20,12,53,19.60
2016,06,20,12,54,19.60
2016,06,20,12,55,19.60
2016,06,20,12,56,19.50
2016,06,20,12,57,19.50
2016,06,20,12,58,19.50
2016,06,20,12,59,19.40
2016,06,20,13,00,19.40
2016,06,20,13,01,19.30
2016,06,20,13,02,19.30
2016,06,20,13,03,19.20
2016,06,20,13,04,19.20
2016,06,20,13,05,19.20
2016,06,20,13,06,19.20
2016,06,20,13,07,19.20
2016,06,20,13,08,19.20
2016,06,20,13,09,19.30
2016,06,20,13,10,19.30
2016,06,20,13,11,19.30
2016,06,20,13,12,19.40
2016,06,20,13,13,19.40
2016,06,20,13,14,19.40
2016,06,20,13,15,19.40
2016,06,20,13,16,19.30
2016,06,20,13,17,19.30
2016,06,20,13,18,19.20
2016,06,20,13,19,19.20
2016,06,20,13,20,19.20
2016,06,20,13,21,19.30
2016,06,20,13,22,19.30
2016,06,20,13,23,19.30
2016,06,20,13,24,19.40
2016,06,20,13,25,19.50
2016,06,20,13,26,19.60
2016,06,20,13,27,19.70
2016,06,20,13,28,19.70
2016,06,20,13,29,19.70
2016,06,20,13,30,19.70
2016,06,20,13,31,19.70
2016,06,20,13,32,19.70
2016,06,20,13,33,19.70
2016,06,20,13,34,19.70
2016,06,20,13,35,19.70
2016,06,20,13,36,19.80
2016,06,20,13,37,19.80
2016,06,20,13,38,19.80
2016,06,20,13,39,19.80
2016,06,20,13,40,19.80
2016,06,20,13,41,19.70
2016,06,20,13,42,19.70
2016,06,20,13,43,19.80
2016,06,20,13,44,19.80
2016,06,20,13,45,19.80
2016,06,20,13,46,19.80
2016,06,20,13,47,19.80
2016,06,20,13,48,19.80
2016,06,20,13,49,19.80
2016,06,20,13,50,19.80
2016,06,20,13,51,19.80
2016,06,20,13,52,19.80
2016,06,20,13,53,19.80
2016,06,20,13,54,19.80
2016,06,20,13,55,19.80
2016,06,20,13,56,19.80
2016,06,20,13,57,19.80
2016,06,20,13,58,19.90
2016,06,20,13,59,19.90
2016,06,20,14,00,20.00
2016,06,20,14,01,20.10
2016,06,20,14,02,20.10
2016,06,20,14,03,20.10
2016,06,20,14,04,20.10
2016,06,20,14,05,20.10
2016,06,20,14,06,20.10
2016,06,20,14,07,20.10
2016,06,20,14,08,20.10
2016,06,20,14,09,20.10
2016,06,20,14,10,20.20
2016,06,20,14,11,20.20
2016,06,20,14,12,20.20
2016,06,20,14,13,20.20
2016,06,20,14,14,20.20
2016,06,20,14,15,20.20
2016,06,20,14,16,20.20
2016,06,20,14,17,20.20
2016,06,20,14,18,20.20
2016,06,20,14,19,20.30
2016,06,20,14,20,20.30
2016,06,20,14,21,20.30
2016,06,20,14,22,20.40
2016,06,20,14,23,20.40
2016,06,20,14,24,20.40
2016,06,20,14,25,20.40
2016,06,20,14,26,20.40
2016,06,20,14,27,20.40
2016,06,20,14,28,20.40
2016,06,20,14,29,20.40
2016,06,20,14,30,20.40
2016,06,20,14,31,20.50
2016,06,20,14,32,20.50
2016,06,20,14,33,20.50
2016,06,20,14,34,20.50
2016,06,20,14,35,20.60
2016,06,20,14,36,20.70
2016,06,20,14,37,20.70
2016,06,20,14,38,20.80
2016,06,20,14,39,20.80
2016,06,20,14,40,20.80
2016,06,20,14,41,20.90
2016,06,20,14,42,20.90
2016,06,20,14,43,21.00
2016,06,20,14,44,21.00
2016,06,20,14,45,21.10
2016,06,20,14,46,21.10
2016,06,20,14,47,21.10
2016,06,20,14,48,21.20
2016,06,20,14,49,21.20
2016,06,20,14,50,21.20
2016,06,20,14,51,21.30
2016,06,20,14,52,21.40
2016,06,20,14,53,21.40
2016,06,20,14,54,21.50
2016,06,20,14,55,21.50
2016,06,20,14,56,21.60
2016,06,20,14,57,21.70
2016,06,20,14,58,21.70
2016,06,20,14,59,21.60
2016,06,20,15,00,21.60
2016,06,20,15,01,21.60
2016,06,20,15,02,21.60
2016,06,20,15,03,21.70
2016,06,20,15,04,21.70
2016,06,20,15,05,21.70
2016,06,20,15,06,21.80
2016,06,20,15,07,21.80
2016,06,20,15,08,21.90
2016,06,20,15,09,21.90
2016,06,20,15,10,22.00
2016,06,20,15,11,22.10
2016,06,20,15,12,22.00
2016,06,20,15,13,21.90
2016,06,20,15,14,21.90
2016,06,20,15,15,21.80
2016,06,20,15,16,21.80
2016,06,20,15,17,21.70
2016,06,20,15,18,21.70
2016,06,20,15,19,21.60
2016,06,20,15,20,21.50
2016,06,20,15,21,21.50
2016,06,20,15,22,21.50
2016,06,20,15,23,21.50
2016,06,20,15,24,21.50
2016,06,20,15,25,21.40
2016,06,20,15,26,21.40
2016,06,20,15,27,21.40
2016,06,20,15,28,21.40
2016,06,20,15,29,21.40
2016,06,20,15,30,21.40
2016,06,20,15,31,21.30
2016,06,20,15,32,21.30
2016,06,20,15,33,21.40
2016,06,20,15,34,21.40
2016,06,20,15,35,21.50
2016,06,20,15,36,21.50
2016,06,20,15,37,21.60
2016,06,20,15,38,21.50
2016,06,20,15,39,21.50
2016,06,20,15,40,21.40
2016,06,20,15,41,21.30
2016,06,20,15,42,21.20
2016,06,20,15,43,21.10
2016,06,20,15,44,21.00
2016,06,20,15,45,21.00
2016,06,20,15,46,20.90
2016,06,20,15,47,20.90
2016,06,20,15,48,20.90
2016,06,20,15,49,20.80
2016,06,20,15,50,20.80
2016,06,20,15,51,20.80
2016,06,20,15,52,20.80
2016,06,20,15,53,20.80
2016,06,20,15,54,20.80
2016,06,20,15,55,20.90
2016,06,20,15,56,20.90
2016,06,20,15,57,21.00
2016,06,20,15,58,21.10
2016,06,20,15,59,21.10
2016,06,20,16,00,21.20
2016,06,20,16,01,21.20
2016,06,20,16,02,21.20
2016,06,20,16,03,21.20
2016,06,20,16,04,21.20
2016,06,20,16,05,21.20
2016,06,20,16,06,21.10
2016,06,20,16,07,20.90
2016,06,20,16,08,20.80
2016,06,20,16,09,20.80
2016,06,20,16,10,20.70
2016,06,20,16,11,20.70
2016,06,20,16,12,20.60
2016,06,20,16,13,20.60
2016,06,20,16,14,20.60
2016,06,20,16,15,20.50
2016,06,20,16,16,20.50
2016,06,20,16,17,20.50
2016,06,20,16,18,20.50
2016,06,20,16,19,20.50
2016,06,20,16,20,20.60
2016,06,20,16,21,20.60
2016,06,20,16,22,20.70
2016,06,20,16,23,20.70
2016,06,20,16,24,20.80
2016,06,20,16,25,20.90
2016,06,20,16,26,21.00
2016,06,20,16,27,21.10
2016,06,20,16,28,21.20
2016,06,20,16,29,21.30
2016,06,20,16,30,21.40
2016,06,20,16,31,21.40
2016,06,20,16,32,21.40
2016,06,20,16,33,21.50
2016,06,20,16,34,21.50
2016,06,20,16,35,21.50
2016,06,20,16,36,21.50
2016,06,20,16,37,21.50
2016,06,20,16,38,21.50
2016,06,20,16,39,21.60
2016,06,20,16,40,21.60
2016,06,20,16,41,21.70
2016,06,20,16,42,21.80
2016,06,20,16,43,21.80
2016,06,20,16,44,21.80
2016,06,20,16,45,21.80
2016,06,20,16,46,21.80
2016,06,20,16,47,21.80
2016,06,20,16,48,21.70
2016,06,20,16,49,21.60
2016,06,20,16,50,21.60
2016,06,20,16,51,21.50
2016,06,20,16,52,21.50
2016,06,20,16,53,21.40
2016,06,20,16,54,21.40
2016,06,20,16,55,21.30
2016,06,20,16,56,21.30
2016,06,20,16,57,21.30
2016,06,20,16,58,21.20
2016,06,20,16,59,21.30
2016,06,20,17,00,21.30
2016,06,20,17,01,21.40
2016,06,20,17,02,21.40
2016,06,20,17,03,21.50
2016,06,20,17,04,21.50
2016,06,20,17,05,21.60
2016,06,20,17,06,21.60
2016,06,20,17,07,21.60
2016,06,20,17,08,21.70
2016,06,20,17,09,21.70
2016,06,20,17,10,21.70
2016,06,20,17,11,21.80
2016,06,20,17,12,21.70
2016,06,20,17,13,21.70
2016,06,20,17,14,21.70
2016,06,20,17,15,21.80
2016,06,20,17,16,21.80
2016,06,20,17,17,21.80
2016,06,20,17,18,21.80
2016,06,20,17,19,21.80